Back to catalog

COSMOS 2069

AliveMilitaryLEO
NORAD 20554·PAYLOAD·🇷🇺 Russia

Launched Apr 6, 1990 from Plesetsk Cosmodrome

Loading…

Next Passes (next 24 hours)

TLE

FreshSource: Space-Track

Epoch: Sep 14, 2026, 06:26 UTC

1 20554U 90029F   26257.26874870 -.00000007  00000-0  56841-4 0  9996
2 20554  73.9858   3.5410 0021444 144.9980 242.9963 12.54543122668869

Track COSMOS 2069 in real time with AllMySat

Download on the App Store